Regional Weather Roundup
Issued by NWS State College, PA

Home | Current Version | Previous Version | Text Only | Print | Product List | Glossary Off
Versions: 1 2 3 4 5 6 7 8 9 10 11 12 13 14 15 16 17 18 19 20 21 22 23 24 25 26 27 28 29 30 31 32 33 34 35 36 37 38 39 40 41 42 43 44 45 46 47 48 49 50

000
ASUS41 KCTP 300010
RWRCTP

REGIONAL WEATHER ROUNDUP
NATIONAL WEATHER SERVICE STATE COLLEGE PA
800 PM EDT SUN MAY 29 2016

Note: "fair" indicates few or no clouds below 12,000 feet with no
significant weather and/or obstructions to visibility.

* = STATION THAT DOES NOT REPORT PRECIPITATION /E.G. RAIN...SNOW...ETC/
    THUNDER OR FOG.

PAZ002>004-007>009-013>016-020>023-029>032-300100-
WESTERN PENNSYLVANIA

CITY           SKY/WX    TMP DP  RH WIND       PRES   REMARKS
ERIE           CLOUDY    78  64  61 S10G20    29.98F
MEADVILLE      CLOUDY    70  57  63 VRB5      30.03F
FRANKLIN*      CLOUDY    66  59  77 SE8       30.06F
NEW CASTLE     FAIR      69  64  84 VRB5      30.05S
BEAVER COUNTY  NOT AVBL
BUTLER*        CLOUDY    66  59  77 S5        30.09F
PITTSBURGH INT CLOUDY    71  58  63 S7        30.06F
PITTSBURGH     PTCLDY    68  59  73 S8        30.06F
INDIANA*       MOCLDY    66  63  88 N3        30.10F
LATROBE        MOCLDY    66  63  88 SE7       30.07F
WASHINGTON CO* MOCLDY    70  59  68 S5        30.08F
$$

PAZ004>006-010>012-017>019-024>028-033>037-041-042-045-046-049>053-300100-
CENTRAL PENNSYLVANIA

CITY           SKY/WX    TMP DP  RH WIND       PRES   REMARKS
BRADFORD       CLOUDY    69  58  67 CALM      30.09F
DUBOIS         CLOUDY    65  56  72 SW3       30.08F
CLEARFIELD     CLOUDY    64  60  87 W3        30.09F
JOHNSTOWN      CLOUDY    63  58  83 SE3       30.11F
ALTOONA        CLOUDY    69  58  67 CALM      30.11F
STATE COLLEGE  MOCLDY    70  61  73 SW6       30.08F
WILLIAMSPORT   CLOUDY    81  57  43 S9        30.01S
SELINSGROVE    CLOUDY    80  58  46 VRB3      30.04S
FT INDIANTOWN  CLOUDY    78  64  62 SW7       30.05R
CAPITAL CITY   LGT RAIN  76  66  71 W3        30.05S
HARRISBURG     LGT RAIN  76  67  73 SW7       30.05R
YORK           LGT RAIN  72  68  87 SW3       30.07R
$$

PAZ038>040-043-044-047-048-054-055-060>062-067>071-300100-
EASTERN PENNSYLVANIA

CITY           SKY/WX    TMP DP  RH WIND       PRES   REMARKS
SCRANTON       CLOUDY    80  54  40 SW5       30.04S
MOUNT POCONO   MOCLDY    74  57  55 SW7       30.10S
ALLENTOWN      CLOUDY    82  62  50 SW8       30.04S
QUAKERTOWN*    CLOUDY    77  70  78 SW14      30.08R
READING        LGT RAIN  79  68  69 S14       30.04R
LANCASTER      HVY RAIN  73  69  87 S12       30.07R FOG
COATESVILLE    LGT RAIN  72  70  94 CALM      30.10S
POTTSTOWN      LGT RAIN  72  70  93 S9        30.09R FOG
BLUE BELL      CLOUDY    72  70  94 S7        30.07R
DOYLESTOWN     LGT RAIN  74  69  85 S8        30.07R
WILLOW GROVE   NOT AVBL
NORTH PHILA    LGT RAIN  77  70  79 SW9       30.08R
PHILADELPHIA   LGT RAIN  74  70  87 S7        30.08S
$$




USA.gov is the U.S. government's official web portal to all federal, state and local government web resources and services.